| time (UTC) | temp C | wind direction | speed KPH | gust KPH | rain 1hr cm | rain 24hr cm | rain mn cm | humidity % | barometer mb |
| 20260502183623 | 12 | 337 | 19.3 | 22.5 | 0.00 | 0.00 | 0.00 | 42 | 1030.5 |
| 20260502183120 | 11 | 357 | 11.3 | 20.9 | 0.00 | 0.00 | 0.00 | 43 | 1030.6 |
| 20260502182614 | 11 | 358 | 20.9 | 25.7 | 0.00 | 0.00 | 0.00 | 44 | 1030.6 |
| 20260502182110 | 11 | 309 | 11.3 | 20.9 | 0.00 | 0.00 | 0.00 | 43 | 1030.5 |
| 20260502181609 | 11 | 270 | 17.7 | 27.4 | 0.00 | 0.00 | 0.00 | 41 | 1030.7 |
| 20260502181107 | 12 | 314 | 12.9 | 17.7 | 0.00 | 0.00 | 0.00 | 41 | 1030.8 |
| 20260502180604 | 12 | 336 | 12.9 | 30.6 | 0.00 | 0.00 | 0.00 | 44 | 1031.2 |
| 20260502164007 | 12 | 24 | 11.3 | 27.4 | 0.00 | 0.00 | 0.00 | 40 | 1031.0 |
| 20260502163503 | 12 | 241 | 3.2 | 11.3 | 0.00 | 0.00 | 0.00 | 41 | 1031.2 |
| 20260502163000 | 13 | 308 | 8.0 | 22.5 | 0.00 | 0.00 | 0.00 | 38 | 1031.2 |
| 20260502162457 | 12 | 3 | 11.3 | 12.9 | 0.00 | 0.00 | 0.00 | 41 | 1031.3 |
| 20260502161954 | 12 | 275 | 6.4 | 20.9 | 0.00 | 0.00 | 0.00 | 43 | 1031.4 |
| 20260502161450 | 11 | 254 | 8.0 | 12.9 | 0.00 | 0.00 | 0.00 | 45 | 1031.5 |
| 20260502160949 | 11 | 37 | 14.5 | 30.6 | 0.00 | 0.00 | 0.00 | 41 | 1031.4 |
| 20260502160446 | 12 | 359 | 3.2 | 4.8 | 0.00 | 0.00 | 0.00 | 45 | 1031.4 |
| 20260502151935 | 10 | 264 | 12.9 | 22.5 | 0.00 | 0.00 | 0.00 | 51 | 1031.7 |
| 20260502151432 | 11 | 316 | 8.0 | 24.1 | 0.00 | 0.00 | 0.00 | 46 | 1031.6 |
| 20260502150929 | 10 | 348 | 4.8 | 12.9 | 0.00 | 0.00 | 0.00 | 51 | 1031.7 |
| 20260502150426 | 10 | 301 | 9.7 | 14.5 | 0.00 | 0.00 | 0.00 | 51 | 1031.8 |
| 20260502130312 | 7 | 331 | 6.4 | 11.3 | 0.00 | 0.00 | 0.00 | 70 | 1032.2 |
| 20260502123757 | 6 | 195 | 0.0 | 1.6 | 0.00 | 0.00 | 0.00 | 74 | 1032.1 |
| 20260502123254 | 6 | 259 | 1.6 | 3.2 | 0.00 | 0.00 | 0.00 | 73 | 1032.1 |
| 20260502122751 | 6 | 193 | 1.6 | 3.2 | 0.00 | 0.00 | 0.00 | 73 | 1032.1 |
| 20260502122247 | 6 | 211 | 0.0 | 0.0 | 0.00 | 0.00 | 0.00 | 75 | 1032.2 |
| 20260502121745 | 6 | 172 | 1.6 | 1.6 | 0.00 | 0.00 | 0.00 | 75 | 1032.2 |
| 20260502121243 | 6 | 161 | 0.0 | 1.6 | 0.00 | 0.00 | 0.00 | 76 | 1032.3 |
| 20260502120739 | 6 | 195 | 1.6 | 1.6 | 0.00 | 0.00 | 0.00 | 76 | 1032.2 |
| 20260502120236 | 6 | 265 | 0.0 | 0.0 | 0.00 | 0.00 | 0.00 | 77 | 1032.2 |
| 20260502115734 | 6 | 179 | 0.0 | 1.6 | 0.00 | 0.00 | 0.00 | 76 | 1032.1 |
| 20260502115230 | 6 | 234 | 0.0 | 0.0 | 0.00 | 0.00 | 0.00 | 76 | 1032.3 |
| 20260502114726 | 5 | 234 | 0.0 | 1.6 | 0.00 | 0.00 | 0.00 | 77 | 1032.0 |
| 20260502114224 | 5 | 229 | 0.0 | 1.6 | 0.00 | 0.00 | 0.00 | 77 | 1032.2 |
| 20260502113721 | 5 | 268 | 0.0 | 0.0 | 0.00 | 0.00 | 0.00 | 79 | 1032.0 |
| 20260502113219 | 5 | 268 | 0.0 | 0.0 | 0.00 | 0.00 | 0.00 | 80 | 1032.0 |
| 20260502112716 | 5 | 268 | 0.0 | 0.0 | 0.00 | 0.00 | 0.00 | 79 | 1032.0 |
| 20260502112214 | 5 | 268 | 0.0 | 0.0 | 0.00 | 0.00 | 0.00 | 79 | 1031.9 |
| 20260502111711 | 5 | 268 | 0.0 | 0.0 | 0.00 | 0.00 | 0.00 | 80 | 1031.9 |
| 20260502111208 | 5 | 268 | 0.0 | 0.0 | 0.00 | 0.00 | 0.00 | 80 | 1031.9 |
| 20260502110706 | 5 | 268 | 0.0 | 1.6 | 0.00 | 0.00 | 0.00 | 80 | 1031.7 |
| 20260502110203 | 4 | 267 | 1.6 | 1.6 | 0.00 | 0.00 | 0.00 | 80 | 1032.0 |
| 20260502105701 | 4 | 270 | 0.0 | 1.6 | 0.00 | 0.00 | 0.00 | 80 | 1031.6 |
| 20260502105157 | 4 | 307 | 0.0 | 1.6 | 0.00 | 0.00 | 0.00 | 80 | 1032.0 |
| 20260502104654 | 4 | 304 | 1.6 | 3.2 | 0.00 | 0.00 | 0.00 | 80 | 1031.7 |
| 20260502104152 | 4 | 315 | 3.2 | 3.2 | 0.00 | 0.00 | 0.00 | 79 | 1031.7 |
| 20260502103649 | 4 | 331 | 3.2 | 3.2 | 0.00 | 0.00 | 0.00 | 79 | 1031.8 |
| 20260502103147 | 4 | 297 | 1.6 | 3.2 | 0.00 | 0.00 | 0.00 | 80 | 1031.8 |
| 20260502102644 | 4 | 278 | 0.0 | 1.6 | 0.00 | 0.00 | 0.00 | 80 | 1031.9 |
| 20260502102141 | 5 | 302 | 0.0 | 0.0 | 0.00 | 0.00 | 0.00 | 79 | 1031.8 |
| 20260502101638 | 5 | 301 | 0.0 | 1.6 | 0.00 | 0.00 | 0.00 | 79 | 1032.0 |
| 20260502101137 | 5 | 315 | 1.6 | 3.2 | 0.00 | 0.00 | 0.00 | 78 | 1031.9 |
| 20260502100635 | 5 | 314 | 0.0 | 0.0 | 0.00 | 0.00 | 0.00 | 78 | 1032.2 |
| 20260502100133 | 5 | 321 | 1.6 | 3.2 | 0.00 | 0.00 | 0.00 | 78 | 1032.1 |
| 20260502091107 | 6 | 351 | 6.4 | 11.3 | 0.00 | 0.00 | 0.00 | 73 | 1031.9 |
| 20260502090604 | 6 | 343 | 6.4 | 6.4 | 0.00 | 0.00 | 0.00 | 73 | 1032.0 |
| 20260502071458 | 7 | 347 | 4.8 | 11.3 | 0.00 | 0.00 | 0.00 | 62 | 1031.5 |
| 20260502070956 | 7 | 341 | 3.2 | 3.2 | 0.00 | 0.00 | 0.00 | 62 | 1031.5 |
| 20260502070454 | 7 | 345 | 8.0 | 11.3 | 0.00 | 0.00 | 0.00 | 62 | 1031.6 |
| 20260502065952 | 7 | 352 | 3.2 | 4.8 | 0.00 | 0.00 | 0.00 | 63 | 1031.7 |
| 20260502065450 | 7 | 335 | 4.8 | 6.4 | 0.00 | 0.00 | 0.00 | 62 | 1031.8 |
| 20260502064948 | 7 | 333 | 3.2 | 6.4 | 0.00 | 0.00 | 0.00 | 61 | 1031.5 |
| 20260502064446 | 7 | 325 | 4.8 | 12.9 | 0.00 | 0.00 | 0.00 | 60 | 1031.7 |
| 20260502063942 | 8 | 319 | 3.2 | 6.4 | 0.00 | 0.00 | 0.00 | 60 | 1031.7 |
| 20260502063440 | 8 | 311 | 9.7 | 14.5 | 0.00 | 0.00 | 0.00 | 59 | 1031.7 |
| 20260502062938 | 8 | 354 | 14.5 | 16.1 | 0.00 | 0.00 | 0.00 | 59 | 1031.5 |
| 20260502062435 | 8 | 346 | 11.3 | 24.1 | 0.00 | 0.00 | 0.00 | 59 | 1031.7 |
| 20260502061933 | 8 | 334 | 14.5 | 20.9 | 0.00 | 0.00 | 0.00 | 62 | 1031.9 |
| 20260502061431 | 8 | 334 | 6.4 | 14.5 | 0.00 | 0.00 | 0.00 | 66 | 1031.8 |
| 20260502060927 | 8 | 307 | 9.7 | 12.9 | 0.00 | 0.00 | 0.00 | 69 | 1031.9 |
| 20260502060422 | 8 | 355 | 16.1 | 17.7 | 0.00 | 0.00 | 0.00 | 69 | 1031.8 |
| 20260502055919 | 8 | 352 | 8.0 | 11.3 | 0.00 | 0.00 | 0.00 | 70 | 1031.9 |
| 20260502055417 | 8 | 333 | 12.9 | 16.1 | 0.00 | 0.00 | 0.00 | 70 | 1031.8 |
| 20260502054917 | 8 | 355 | 9.7 | 17.7 | 0.00 | 0.00 | 0.00 | 70 | 1032.0 |
| 20260502054414 | 8 | 326 | 12.9 | 17.7 | 0.00 | 0.00 | 0.00 | 70 | 1031.8 |
| 20260502053912 | 8 | 351 | 11.3 | 12.9 | 0.00 | 0.00 | 0.00 | 71 | 1031.8 |
| 20260502053408 | 8 | 308 | 9.7 | 20.9 | 0.00 | 0.00 | 0.00 | 71 | 1031.9 |
| 20260502052906 | 8 | 339 | 8.0 | 9.7 | 0.00 | 0.00 | 0.00 | 74 | 1031.9 |
| 20260502052404 | 8 | 335 | 4.8 | 9.7 | 0.00 | 0.00 | 0.00 | 74 | 1032.0 |
| 20260502051901 | 8 | 345 | 9.7 | 12.9 | 0.00 | 0.00 | 0.00 | 73 | 1031.8 |
| 20260502051400 | 9 | 11 | 6.4 | 6.4 | 0.00 | 0.00 | 0.00 | 73 | 1031.7 |
| 20260502050856 | 9 | 304 | 6.4 | 11.3 | 0.00 | 0.00 | 0.00 | 73 | 1031.7 |
| 20260502050353 | 9 | 33 | 1.6 | 3.2 | 0.00 | 0.00 | 0.00 | 72 | 1031.8 |
| 20260502045850 | 9 | 22 | 8.0 | 11.3 | 0.00 | 0.00 | 0.00 | 72 | 1031.7 |
| 20260502045346 | 9 | 349 | 1.6 | 4.8 | 0.00 | 0.00 | 0.00 | 72 | 1031.9 |
| 20260502044844 | 9 | 320 | 3.2 | 9.7 | 0.00 | 0.00 | 0.00 | 72 | 1031.9 |
| 20260502044339 | 9 | 338 | 4.8 | 9.7 | 0.00 | 0.00 | 0.00 | 71 | 1031.9 |
| 20260502043837 | 9 | 324 | 4.8 | 4.8 | 0.00 | 0.00 | 0.00 | 71 | 1032.0 |
| 20260502043335 | 9 | 324 | 6.4 | 11.3 | 0.00 | 0.00 | 0.00 | 71 | 1032.0 |
| 20260502042834 | 9 | 345 | 1.6 | 11.3 | 0.00 | 0.00 | 0.00 | 70 | 1032.0 |
| 20260502042331 | 9 | 345 | 3.2 | 12.9 | 0.00 | 0.00 | 0.00 | 70 | 1031.6 |
| 20260502041829 | 9 | 352 | 9.7 | 12.9 | 0.00 | 0.00 | 0.00 | 70 | 1031.9 |
| 20260502041326 | 9 | 316 | 1.6 | 4.8 | 0.00 | 0.00 | 0.00 | 69 | 1031.8 |
| 20260502040823 | 9 | 327 | 6.4 | 11.3 | 0.00 | 0.00 | 0.00 | 69 | 1031.9 |
| 20260502040320 | 9 | 319 | 4.8 | 11.3 | 0.00 | 0.00 | 0.00 | 69 | 1031.9 |
| 20260502035816 | 9 | 320 | 6.4 | 11.3 | 0.00 | 0.00 | 0.00 | 69 | 1031.9 |
| 20260502035313 | 9 | 318 | 8.0 | 11.3 | 0.00 | 0.00 | 0.00 | 68 | 1031.7 |
| 20260502034810 | 9 | 347 | 6.4 | 6.4 | 0.00 | 0.00 | 0.00 | 68 | 1031.8 |
| 20260502034308 | 10 | 1 | 8.0 | 12.9 | 0.00 | 0.00 | 0.00 | 68 | 1032.1 |
| 20260502033806 | 10 | 42 | 4.8 | 4.8 | 0.00 | 0.00 | 0.00 | 67 | 1032.1 |
| 20260502033303 | 10 | 348 | 4.8 | 9.7 | 0.00 | 0.00 | 0.00 | 67 | 1032.2 |
| 20260502032800 | 10 | 66 | 4.8 | 11.3 | 0.00 | 0.00 | 0.00 | 68 | 1031.9 |
| 20260502032256 | 10 | 328 | 4.8 | 6.4 | 0.00 | 0.00 | 0.00 | 68 | 1032.1 |
| 20260502031754 | 10 | 34 | 4.8 | 9.7 | 0.00 | 0.00 | 0.00 | 68 | 1031.7 |
| 20260502031252 | 10 | 347 | 6.4 | 9.7 | 0.00 | 0.00 | 0.00 | 68 | 1032.0 |
| 20260502030750 | 10 | 319 | 6.4 | 6.4 | 0.00 | 0.00 | 0.00 | 68 | 1032.0 |
| 20260502030248 | 10 | 344 | 6.4 | 12.9 | 0.00 | 0.00 | 0.00 | 67 | 1032.0 |
| 20260502025745 | 10 | 344 | 12.9 | 16.1 | 0.00 | 0.00 | 0.00 | 67 | 1031.8 |
| 20260502025243 | 10 | 320 | 12.9 | 16.1 | 0.00 | 0.00 | 0.00 | 67 | 1031.8 |
| 20260502024741 | 10 | 320 | 8.0 | 16.1 | 0.00 | 0.00 | 0.00 | 67 | 1031.8 |
| 20260502024238 | 10 | 359 | 8.0 | 20.9 | 0.00 | 0.00 | 0.00 | 67 | 1031.8 |
| 20260502023736 | 10 | 0 | 14.5 | 20.9 | 0.00 | 0.00 | 0.00 | 68 | 1031.6 |
| 20260502023233 | 10 | 315 | 14.5 | 17.7 | 0.00 | 0.00 | 0.00 | 67 | 1031.3 |
| 20260502022731 | 10 | 7 | 6.4 | 22.5 | 0.00 | 0.00 | 0.00 | 68 | 1031.4 |
| 20260502022227 | 10 | 3 | 4.8 | 12.9 | 0.00 | 0.00 | 0.00 | 69 | 1031.3 |
| 20260502021724 | 10 | 355 | 9.7 | 12.9 | 0.00 | 0.00 | 0.00 | 69 | 1031.2 |
| 20260502021222 | 10 | 340 | 14.5 | 16.1 | 0.00 | 0.00 | 0.00 | 69 | 1031.3 |
| 20260502020719 | 11 | 333 | 12.9 | 14.5 | 0.00 | 0.00 | 0.00 | 69 | 1031.2 |
| 20260502020216 | 11 | 295 | 1.6 | 4.8 | 0.00 | 0.00 | 0.00 | 70 | 1030.9 |
| 20260502015714 | 11 | 1 | 4.8 | 9.7 | 0.00 | 0.00 | 0.00 | 70 | 1030.7 |
| 20260502015209 | 11 | 335 | 6.4 | 24.1 | 0.00 | 0.00 | 0.00 | 70 | 1030.5 |
| 20260502014708 | 11 | 40 | 8.0 | 12.9 | 0.00 | 0.00 | 0.00 | 70 | 1030.4 |
| 20260502014204 | 11 | 0 | 6.4 | 12.9 | 0.00 | 0.00 | 0.00 | 70 | 1030.3 |
| 20260502013700 | 11 | 335 | 6.4 | 11.3 | 0.00 | 0.00 | 0.00 | 70 | 1030.3 |
| 20260502013155 | 11 | 10 | 9.7 | 17.7 | 0.00 | 0.00 | 0.00 | 70 | 1030.1 |
| 20260502012653 | 11 | 295 | 6.4 | 12.9 | 0.00 | 0.00 | 0.00 | 70 | 1030.1 |
| 20260502012151 | 11 | 347 | 4.8 | 9.7 | 0.00 | 0.00 | 0.00 | 70 | 1030.3 |
| 20260502011647 | 11 | 339 | 9.7 | 14.5 | 0.00 | 0.00 | 0.00 | 69 | 1029.9 |
| 20260502011143 | 11 | 335 | 3.2 | 14.5 | 0.00 | 0.00 | 0.00 | 69 | 1029.9 |
| 20260502010641 | 11 | 351 | 9.7 | 16.1 | 0.00 | 0.00 | 0.00 | 69 | 1029.8 |
| 20260502010137 | 11 | 3 | 8.0 | 16.1 | 0.00 | 0.00 | 0.00 | 68 | 1030.0 |
| 20260502005635 | 11 | 13 | 9.7 | 12.9 | 0.00 | 0.00 | 0.00 | 67 | 1029.6 |
| 20260502005132 | 11 | 332 | 6.4 | 9.7 | 0.00 | 0.00 | 0.00 | 66 | 1029.6 |
| 20260502004628 | 12 | 340 | 6.4 | 12.9 | 0.00 | 0.00 | 0.00 | 65 | 1029.2 |
| 20260502004125 | 12 | 353 | 6.4 | 14.5 | 0.00 | 0.00 | 0.00 | 64 | 1029.2 |
| 20260502003623 | 12 | 44 | 6.4 | 14.5 | 0.00 | 0.00 | 0.00 | 63 | 1029.0 |
| 20260502003120 | 12 | 20 | 9.7 | 16.1 | 0.00 | 0.00 | 0.00 | 62 | 1028.8 |
| 20260502002616 | 12 | 330 | 19.3 | 25.7 | 0.00 | 0.00 | 0.00 | 61 | 1028.6 |
| 20260502002114 | 12 | 333 | 8.0 | 20.9 | 0.00 | 0.00 | 0.00 | 61 | 1028.5 |
| 20260502001611 | 13 | 321 | 20.9 | 30.6 | 0.00 | 0.00 | 0.00 | 59 | 1028.2 |
| 20260502001108 | 13 | 333 | 14.5 | 22.5 | 0.00 | 0.00 | 0.00 | 57 | 1028.2 |
| 20260502000606 | 13 | 9 | 8.0 | 27.4 | 0.00 | 0.00 | 0.00 | 56 | 1028.1 |
| 20260501235559 | 15 | 339 | 24.1 | 27.4 | 0.00 | 0.00 | 0.00 | 48 | 1027.6 |
| 20260501235055 | 15 | 346 | 16.1 | 27.4 | 0.00 | 0.00 | 0.00 | 44 | 1027.5 |
| 20260501234551 | 17 | 326 | 9.7 | 12.9 | 0.00 | 0.00 | 0.00 | 39 | 1027.1 |
| 20260501234049 | 17 | 309 | 6.4 | 17.7 | 0.00 | 0.00 | 0.00 | 38 | 1027.0 |
| 20260501233547 | 17 | 286 | 3.2 | 12.9 | 0.00 | 0.00 | 0.00 | 37 | 1027.0 |
| 20260501233043 | 17 | 274 | 3.2 | 16.1 | 0.00 | 0.00 | 0.00 | 36 | 1026.8 |
| 20260501232539 | 17 | 227 | 9.7 | 14.5 | 0.00 | 0.00 | 0.00 | 35 | 1026.7 |
| 20260501232037 | 17 | 347 | 9.7 | 16.1 | 0.00 | 0.00 | 0.00 | 35 | 1026.7 |
| 20260501231535 | 18 | 274 | 6.4 | 22.5 | 0.00 | 0.00 | 0.00 | 35 | 1026.8 |
| 20260501231033 | 18 | 297 | 3.2 | 6.4 | 0.00 | 0.00 | 0.00 | 33 | 1026.8 |
| 20260501230531 | 18 | 259 | 6.4 | 12.9 | 0.00 | 0.00 | 0.00 | 32 | 1026.8 |
| 20260501230029 | 18 | 235 | 6.4 | 11.3 | 0.00 | 0.00 | 0.00 | 33 | 1026.6 |
| 20260501225526 | 18 | 181 | 6.4 | 14.5 | 0.00 | 0.00 | 0.00 | 32 | 1026.8 |
| 20260501225022 | 18 | 297 | 8.0 | 12.9 | 0.00 | 0.00 | 0.00 | 33 | 1026.9 |
| 20260501224520 | 18 | 193 | 3.2 | 14.5 | 0.00 | 0.00 | 0.00 | 32 | 1026.8 |
| 20260501224017 | 18 | 293 | 4.8 | 12.9 | 0.00 | 0.00 | 0.00 | 32 | 1026.9 |
| 20260501223513 | 18 | 252 | 3.2 | 14.5 | 0.00 | 0.00 | 0.00 | 31 | 1026.9 |
| 20260501223009 | 18 | 258 | 4.8 | 14.5 | 0.00 | 0.00 | 0.00 | 30 | 1026.8 |
| 20260501222506 | 18 | 277 | 6.4 | 14.5 | 0.00 | 0.00 | 0.00 | 30 | 1026.8 |
| 20260501222002 | 19 | 259 | 6.4 | 17.7 | 0.00 | 0.00 | 0.00 | 30 | 1026.9 |
| 20260501221459 | 19 | 261 | 4.8 | 9.7 | 0.00 | 0.00 | 0.00 | 30 | 1026.8 |
| 20260501220957 | 19 | 290 | 8.0 | 14.5 | 0.00 | 0.00 | 0.00 | 31 | 1026.8 |
| 20260501220454 | 19 | 274 | 11.3 | 20.9 | 0.00 | 0.00 | 0.00 | 30 | 1026.6 |
| 20260501215950 | 19 | 325 | 6.4 | 14.5 | 0.00 | 0.00 | 0.00 | 30 | 1026.7 |
| 20260501215447 | 19 | 260 | 4.8 | 12.9 | 0.00 | 0.00 | 0.00 | 33 | 1026.9 |
| 20260501214942 | 19 | 245 | 4.8 | 16.1 | 0.00 | 0.00 | 0.00 | 31 | 1026.8 |
| 20260501214438 | 19 | 258 | 8.0 | 16.1 | 0.00 | 0.00 | 0.00 | 32 | 1026.8 |
| 20260501213934 | 20 | 282 | 14.5 | 22.5 | 0.00 | 0.00 | 0.00 | 29 | 1027.0 |
| 20260501213431 | 19 | 337 | 8.0 | 14.5 | 0.00 | 0.00 | 0.00 | 32 | 1026.7 |
| 20260501212927 | 19 | 336 | 17.7 | 22.5 | 0.00 | 0.00 | 0.00 | 30 | 1026.4 |
| 20260501212424 | 18 | 300 | 6.4 | 14.5 | 0.00 | 0.00 | 0.00 | 31 | 1026.7 |
| 20260501211920 | 19 | 271 | 12.9 | 16.1 | 0.00 | 0.00 | 0.00 | 30 | 1026.4 |
| 20260501211418 | 19 | 271 | 8.0 | 16.1 | 0.00 | 0.00 | 0.00 | 29 | 1026.7 |
| 20260501210915 | 19 | 275 | 4.8 | 6.4 | 0.00 | 0.00 | 0.00 | 30 | 1026.7 |
| 20260501210412 | 18 | 246 | 3.2 | 12.9 | 0.00 | 0.00 | 0.00 | 31 | 1026.6 |
| 20260501205908 | 19 | 246 | 11.3 | 20.9 | 0.00 | 0.00 | 0.00 | 26 | 1026.6 |
| 20260501205405 | 20 | 229 | 3.2 | 14.5 | 0.00 | 0.00 | 0.00 | 29 | 1026.4 |
| 20260501204902 | 21 | 272 | 3.2 | 4.8 | 0.00 | 0.00 | 0.00 | 30 | 1026.3 |
| 20260501204358 | 19 | 244 | 3.2 | 17.7 | 0.00 | 0.00 | 0.00 | 28 | 1026.7 |
| 20260501203854 | 19 | 278 | 8.0 | 22.5 | 0.00 | 0.00 | 0.00 | 28 | 1026.7 |
| 20260501203352 | 21 | 214 | 1.6 | 6.4 | 0.00 | 0.00 | 0.00 | 28 | 1026.6 |
| 20260501202848 | 21 | 287 | 3.2 | 6.4 | 0.00 | 0.00 | 0.00 | 28 | 1026.4 |
| 20260501202346 | 20 | 295 | 3.2 | 9.7 | 0.00 | 0.00 | 0.00 | 25 | 1026.4 |
| 20260501201842 | 19 | 245 | 3.2 | 12.9 | 0.00 | 0.00 | 0.00 | 25 | 1026.3 |
| 20260501201339 | 20 | 213 | 6.4 | 12.9 | 0.00 | 0.00 | 0.00 | 25 | 1026.4 |
| 20260501200836 | 20 | 267 | 3.2 | 4.8 | 0.00 | 0.00 | 0.00 | 24 | 1026.7 |
| 20260501200333 | 20 | 257 | 6.4 | 9.7 | 0.00 | 0.00 | 0.00 | 27 | 1026.8 |
| 20260501195831 | 20 | 265 | 9.7 | 35.4 | 0.00 | 0.00 | 0.00 | 24 | 1026.6 |
| 20260501195326 | 22 | 219 | 6.4 | 11.3 | 0.00 | 0.00 | 0.00 | 26 | 1026.6 |
| 20260501194822 | 21 | 186 | 6.4 | 6.4 | 0.00 | 0.00 | 0.00 | 23 | 1026.7 |
| 20260501194319 | 20 | 246 | 1.6 | 4.8 | 0.00 | 0.00 | 0.00 | 25 | 1026.8 |
| 20260501193815 | 20 | 256 | 6.4 | 14.5 | 0.00 | 0.00 | 0.00 | 25 | 1026.9 |
| 20260501193314 | 21 | 269 | 3.2 | 11.3 | 0.00 | 0.00 | 0.00 | 26 | 1026.8 |
| 20260501192811 | 21 | 187 | 3.2 | 14.5 | 0.00 | 0.00 | 0.00 | 25 | 1026.9 |
| 20260501192308 | 20 | 244 | 8.0 | 9.7 | 0.00 | 0.00 | 0.00 | 25 | 1026.9 |
| 20260501191805 | 20 | 228 | 9.7 | 24.1 | 0.00 | 0.00 | 0.00 | 23 | 1027.1 |
| 20260501191302 | 20 | 151 | 12.9 | 16.1 | 0.00 | 0.00 | 0.00 | 24 | 1027.2 |
| 20260501190759 | 20 | 269 | 11.3 | 16.1 | 0.00 | 0.00 | 0.00 | 23 | 1027.4 |
| 20260501190254 | 20 | 258 | 17.7 | 29.0 | 0.00 | 0.00 | 0.00 | 23 | 1027.4 |
| 20260501185750 | 20 | 198 | 12.9 | 25.7 | 0.00 | 0.00 | 0.00 | 25 | 1027.3 |
| 20260501185246 | 20 | 206 | 9.7 | 16.1 | 0.00 | 0.00 | 0.00 | 29 | 1027.6 |
| 20260501184742 | 20 | 158 | 17.7 | 24.1 | 0.00 | 0.00 | 0.00 | 29 | 1027.5 |
| 20260501184238 | 19 | 163 | 3.2 | 9.7 | 0.00 | 0.00 | 0.00 | 32 | 1027.6 |
| 20260501183734 | 19 | 179 | 11.3 | 16.1 | 0.00 | 0.00 | 0.00 | 30 | 1027.5 |